Project,Study,Ord_Occ,Event_Num,Cast_ID,Date_Time_UTC,Date_Time_PST,Lat_Dec,Lon_Dec,Sta_ID,Line,Sta,Depth,Pressure,PrQ,Temp1,Temp1Q,Temp2,Temp2Q,TempAve,Salt1,Salt1Q,Salt1_Corr,Salt2,Salt2Q,Salt2_Corr,SaltAve_Corr,Ox1,Ox1Q,Ox1_CruiseCorr,Ox1_StaCorr,Ox2,Ox2Q,Ox2_CruiseCorr,Ox2_StaCorr,OxAve_StaCorr,Ox1uM,Ox1uM_CruiseCorr,Ox1uM_StaCorr,Ox2uM,Ox2uM_CruiseCorr,Ox2uM_StaCorr,OxAveuM_StaCorr,FluorV,FluorQ,EstChl_CruiseCorr,EstChl_StaCorr,ISUSV,ISUSQ,EstNO3_CruiseCorr,EstNO3_StaCorr,SigThetaTS1,SigThetaTS1Q,SigThetaTS2,SigThetaTS2Q,BAT,XMiss,TransQ,pH,pHQ,SPAR,SPARQ,PAR,PARQ,PoT1,PoT2,DynHt,SVA,OxSat1,OxSat2,BTL_Depth,BTL_Temp,SaltB,OxB,OxBuM,Chl-a,Phaeo,NO3,NO2,NH4,PO4,SIL
CalCOFI,2101RL,070,,2101_070u,02-Feb-2021 08:43:53,02-Feb-2021 00:43:53,34.72441,-121.54564,076.7 060.0,076.7,060.0,517.000,521.403,,6.0247,,6.0249,,6.0248,34.2969,,34.3027,34.2951,,34.2971,34.2999,0.2966,,0.3103,0.3217,0.2964,,0.3128,0.3279,0.3248,12.899,13.7629,28.5880,12.887,14.7963,28.6874,28.6377,0.0324,,,, ,, , ,26.9997,,26.9983,,0.7260,83.4010,,,,3.2925E+00,,1.0000E-12,,5.9791,5.9794,0.8423,112.163,4.276,4.272,,,,,,,,,,,,
CalCOFI,2101RL,070,,2101_070u,02-Feb-2021 08:44:07,02-Feb-2021 00:44:07,34.72445,-121.54563,076.7 060.0,076.7,060.0,516.000,520.394,,6.0323,,6.0327,,6.0325,34.2969,,34.3027,34.2952,,34.2972,34.3000,0.2936,,0.3072,0.3186,0.2957,,0.3121,0.3271,0.3229,12.768,13.6257,28.4845,12.859,14.6506,28.6648,28.5747,0.0327,,,, ,, , ,26.9987,,26.9973,,0.7260,83.4018,,,,3.7466E+00,,1.0000E-12,,5.9868,5.9872,0.8436,112.250,4.233,4.263,516,,34.2878,0.295,12.86,,,,,,,
CalCOFI,2101RL,070,,2101_070u,02-Feb-2021 08:44:17,02-Feb-2021 00:44:17,34.72446,-121.54562,076.7 060.0,076.7,060.0,515.000,519.384,,6.0353,,6.0344,,6.0349,34.2965,,34.3023,34.2950,,34.2970,34.2997,0.2940,,0.3076,0.3190,0.2979,,0.3144,0.3295,0.3243,12.786,13.6446,28.4987,12.956,14.6706,28.7432,28.6210,0.0317,,,, ,, , ,26.9980,,26.9969,,0.7277,83.3666,,,,3.6945E+00,,1.0000E-12,,5.9899,5.9890,0.8445,112.305,4.239,4.296,,,,,,,,,,,,
CalCOFI,2101RL,070,,2101_070u,02-Feb-2021 08:44:19,02-Feb-2021 00:44:19,34.72446,-121.54562,076.7 060.0,076.7,060.0,514.000,518.374,,6.0372,,6.0356,,6.0364,34.2966,,34.3024,34.2948,,34.2968,34.2996,0.2947,,0.3083,0.3197,0.2960,,0.3124,0.3275,0.3236,12.816,13.6760,28.5224,12.869,14.7040,28.6729,28.5977,0.0326,,,, ,, , ,26.9979,,26.9967,,0.7261,83.3995,,,,3.6947E+00,,1.0000E-12,,5.9919,5.9903,0.8445,112.307,4.250,4.267,,,,,,,,,,,,
CalCOFI,2101RL,070,,2101_070u,02-Feb-2021 08:44:20,02-Feb-2021 00:44:20,34.72447,-121.54562,076.7 060.0,076.7,060.0,513.000,517.365,,6.0393,,6.0362,,6.0378,34.2967,,34.3025,34.2953,,34.2973,34.2999,0.3017,,0.3157,0.3271,0.2976,,0.3141,0.3292,0.3282,13.119,13.9932,28.7619,12.943,15.0409,28.7327,28.7473,0.0329,,,, ,, , ,26.9976,,26.9969,,0.7261,83.3987,,,,3.6947E+00,,1.0000E-12,,5.9941,5.9910,0.8445,112.318,4.350,4.291,,,,,,,,,,,,
CalCOFI,2101RL,070,,2101_070u,02-Feb-2021 08:44:22,02-Feb-2021 00:44:22,34.72448,-121.54562,076.7 060.0,076.7,060.0,512.000,516.355,,6.0483,,6.0433,,6.0458,34.2963,,34.3021,34.2945,,34.2965,34.2993,0.3064,,0.3206,0.3320,0.3063,,0.3233,0.3385,0.3353,13.323,14.2067,28.9232,13.319,15.2678,29.0368,28.9800,0.0325,,,, ,, , ,26.9962,,26.9954,,0.7261,83.3994,,,,3.6947E+00,,1.0000E-12,,6.0031,5.9981,0.8445,112.447,4.419,4.417,,,,,,,,,,,,
CalCOFI,2101RL,070,,2101_070u,02-Feb-2021 08:44:23,02-Feb-2021 00:44:23,34.72448,-121.54562,076.7 060.0,076.7,060.0,511.000,515.345,,6.0715,,6.0597,,6.0656,34.2956,,34.3014,34.2946,,34.2966,34.2990,0.3022,,0.3162,0.3276,0.3047,,0.3216,0.3368,0.3322,13.142,14.0172,28.7801,13.252,15.0665,28.9826,28.8814,0.0331,,,, ,, , ,26.9927,,26.9934,,0.7260,83.4008,,,,3.6947E+00,,1.0000E-12,,6.0263,6.0146,0.8445,112.789,4.361,4.396,,,,,,,,,,,,
CalCOFI,2101RL,070,,2101_070u,02-Feb-2021 08:44:24,02-Feb-2021 00:44:24,34.72448,-121.54562,076.7 060.0,076.7,060.0,510.000,514.335,,6.0783,,6.0744,,6.0764,34.2953,,34.3011,34.2940,,34.2960,34.2986,0.3084,,0.3227,0.3341,0.3057,,0.3227,0.3378,0.3360,13.410,14.2978,28.9919,13.292,15.3645,29.0149,29.0034,0.0332,,,, ,, , ,26.9916,,26.9910,,0.7265,83.3912,,,,3.6059E+00,,1.0000E-12,,6.0332,6.0293,0.8445,112.889,4.451,4.411,,,,,,,,,,,,
CalCOFI,2101RL,070,,2101_070u,02-Feb-2021 08:44:25,02-Feb-2021 00:44:25,34.72448,-121.54562,076.7 060.0,076.7,060.0,509.000,513.325,,6.0798,,6.0771,,6.0785,34.2954,,34.3012,34.2935,,34.2955,34.2984,0.3095,,0.3238,0.3352,0.3107,,0.3280,0.3432,0.3392,13.459,14.3491,29.0307,13.512,15.4190,29.1928,29.1118,0.0330,,,, ,, , ,26.9915,,26.9903,,0.7266,83.3890,,,,3.6949E+00,,1.0000E-12,,6.0348,6.0321,0.8445,112.889,4.467,4.484,,,,,,,,,,,,
CalCOFI,2101RL,070,,2101_070u,02-Feb-2021 08:44:26,02-Feb-2021 00:44:26,34.72448,-121.54562,076.7 060.0,076.7,060.0,508.000,512.316,,6.0837,,6.0820,,6.0829,34.2955,,34.3013,34.2939,,34.2959,34.2986,0.3075,,0.3217,0.3331,0.3098,,0.3270,0.3422,0.3377,13.373,14.2591,28.9627,13.471,15.3234,29.1597,29.0612,0.0330,,,, ,, , ,26.9911,,26.9900,,0.7275,83.3706,,,,3.6947E+00,,1.0000E-12,,6.0388,6.0370,0.8445,112.918,4.439,4.472,,,,,,,,,,,,
CalCOFI,2101RL,070,,2101_070u,02-Feb-2021 08:44:27,02-Feb-2021 00:44:27,34.72448,-121.54562,076.7 060.0,076.7,060.0,507.000,511.306,,6.0867,,6.0867,,6.0867,34.2954,,34.3012,34.2937,,34.2957,34.2985,0.3116,,0.3260,0.3374,0.3060,,0.3230,0.3382,0.3378,13.549,14.4433,29.1018,13.306,15.5191,29.0263,29.0641,0.0333,,,, ,, , ,26.9906,,26.9892,,0.7269,83.3821,,,,3.6947E+00,,1.0000E-12,,6.0418,6.0418,0.8445,112.952,4.498,4.417,,,,,,,,,,,,
CalCOFI,2101RL,070,,2101_070u,02-Feb-2021 08:44:28,02-Feb-2021 00:44:28,34.72448,-121.54562,076.7 060.0,076.7,060.0,506.000,510.296,,6.0867,,6.0867,,6.0867,34.2954,,34.3012,34.2937,,34.2957,34.2985,0.3091,,0.3234,0.3348,0.3054,,0.3224,0.3375,0.3362,13.443,14.3323,29.0180,13.283,15.4012,29.0077,29.0129,0.0332,,,, ,, , ,26.9906,,26.9892,,0.7261,83.3989,,,,3.6947E+00,,1.0000E-12,,6.0419,6.0419,0.8445,112.942,4.462,4.409,,,,,,,,,,,,
CalCOFI,2101RL,070,,2101_070u,02-Feb-2021 08:44:29,02-Feb-2021 00:44:29,34.72448,-121.54562,076.7 060.0,076.7,060.0,505.000,509.287,,6.0894,,6.0889,,6.0892,34.2953,,34.3011,34.2936,,34.2956,34.2984,0.3083,,0.3226,0.3340,0.3066,,0.3236,0.3388,0.3364,13.407,14.2946,28.9896,13.331,15.3612,29.0465,29.0181,0.0331,,,, ,, , ,26.9901,,26.9888,,0.7267,83.3877,,,,3.6947E+00,,1.0000E-12,,6.0447,6.0442,0.8445,112.974,4.451,4.426,,,,,,,,,,,,
CalCOFI,2101RL,070,,2101_070u,02-Feb-2021 08:44:30,02-Feb-2021 00:44:30,34.72448,-121.54562,076.7 060.0,076.7,060.0,504.000,508.277,,6.0926,,6.0925,,6.0926,34.2950,,34.3008,34.2934,,34.2954,34.2981,0.3105,,0.3249,0.3363,0.3129,,0.3303,0.3456,0.3410,13.502,14.3941,29.0647,13.608,15.4668,29.2704,29.1676,0.0332,,,, ,, , ,26.9895,,26.9883,,0.7277,83.3665,,,,3.6947E+00,,1.0000E-12,,6.0480,6.0479,0.8445,113.024,4.483,4.518,,,,,,,,,,,,
CalCOFI,2101RL,070,,2101_070u,02-Feb-2021 08:44:31,02-Feb-2021 00:44:31,34.72450,-121.54562,076.7 060.0,076.7,060.0,503.000,507.267,,6.0959,,6.0950,,6.0955,34.2946,,34.3004,34.2932,,34.2952,34.2978,0.3163,,0.3309,0.3424,0.3113,,0.3286,0.3438,0.3431,13.753,14.6568,29.2631,13.538,15.7460,29.2138,29.2385,0.0326,,,, ,, , ,26.9887,,26.9877,,0.7269,83.3824,,,,3.6947E+00,,1.0000E-12,,6.0514,6.0504,0.8445,113.081,4.566,4.495,,,,,,,,,,,,
CalCOFI,2101RL,070,,2101_070u,02-Feb-2021 08:44:32,02-Feb-2021 00:44:32,34.72450,-121.54562,076.7 060.0,076.7,060.0,502.000,506.257,,6.1007,,6.0979,,6.0993,34.2945,,34.3003,34.2930,,34.2950,34.2977,0.3159,,0.3305,0.3419,0.3143,,0.3318,0.3471,0.3445,13.739,14.6422,29.2520,13.667,15.7304,29.3182,29.2851,0.0339,,,, ,, , ,26.9880,,26.9872,,0.7269,83.3823,,,,3.6947E+00,,1.0000E-12,,6.0562,6.0535,0.8445,113.140,4.562,4.538,,,,,,,,,,,,
CalCOFI,2101RL,070,,2101_070u,02-Feb-2021 08:44:32,02-Feb-2021 00:44:32,34.72450,-121.54562,076.7 060.0,076.7,060.0,501.000,505.248,,6.1079,,6.1065,,6.1072,34.2941,,34.2999,34.2924,,34.2944,34.2972,0.3146,,0.3292,0.3406,0.3158,,0.3334,0.3487,0.3447,13.681,14.5815,29.2061,13.734,15.6659,29.3723,29.2892,0.0328,,,, ,, , ,26.9868,,26.9857,,0.7272,83.3771,,,,3.6947E+00,,1.0000E-12,,6.0635,6.0621,0.8445,113.253,4.544,4.561,,,,,,,,,,,,
CalCOFI,2101RL,070,,2101_070u,02-Feb-2021 08:44:33,02-Feb-2021 00:44:33,34.72450,-121.54562,076.7 060.0,076.7,060.0,500.000,504.238,,6.1144,,6.1139,,6.1142,34.2937,,34.2995,34.2921,,34.2941,34.2968,0.3192,,0.3340,0.3454,0.3177,,0.3354,0.3507,0.3481,13.882,14.7919,29.3650,13.818,15.8894,29.4403,29.4027,0.0328,,,, ,, , ,26.9857,,26.9844,,0.7275,83.3706,,,,3.6947E+00,,1.0000E-12,,6.0700,6.0696,0.8445,113.350,4.611,4.590,,,,,,,,,,,,
CalCOFI,2101RL,070,,2101_070u,02-Feb-2021 08:44:34,02-Feb-2021 00:44:34,34.72450,-121.54562,076.7 060.0,076.7,060.0,499.000,503.228,,6.1182,,6.1180,,6.1181,34.2935,,34.2993,34.2918,,34.2938,34.2966,0.3183,,0.3330,0.3445,0.3215,,0.3395,0.3548,0.3497,13.840,14.7479,29.3318,13.983,15.8427,29.5737,29.4528,0.0330,,,, ,, , ,26.9850,,26.9837,,0.7272,83.3758,,,,3.6947E+00,,1.0000E-12,,6.0740,6.0737,0.8445,113.402,4.598,4.645,,,,,,,,,,,,
CalCOFI,2101RL,070,,2101_070u,02-Feb-2021 08:44:35,02-Feb-2021 00:44:35,34.72450,-121.54562,076.7 060.0,076.7,060.0,498.000,502.219,,6.1219,,6.1193,,6.1206,34.2934,,34.2992,34.2918,,34.2938,34.2965,0.3176,,0.3323,0.3437,0.3184,,0.3362,0.3515,0.3476,13.812,14.7186,29.3097,13.846,15.8116,29.4629,29.3863,0.0325,,,, ,, , ,26.9845,,26.9835,,0.7276,83.3690,,,,3.6947E+00,,1.0000E-12,,6.0777,6.0751,0.8445,113.444,4.589,4.600,,,,,,,,,,,,
CalCOFI,2101RL,070,,2101_070u,02-Feb-2021 08:44:36,02-Feb-2021 00:44:36,34.72450,-121.54562,076.7 060.0,076.7,060.0,497.000,501.209,,6.1264,,6.1216,,6.1240,34.2930,,34.2988,34.2919,,34.2939,34.2964,0.3242,,0.3392,0.3507,0.3158,,0.3334,0.3487,0.3497,14.097,15.0169,29.5350,13.733,16.1285,29.3715,29.4533,0.0330,,,, ,, , ,26.9835,,26.9832,,0.7270,83.3808,,,,3.2929E+00,,1.0000E-12,,6.0823,6.0775,0.8445,113.522,4.684,4.562,,,,,,,,,,,,
CalCOFI,2101RL,070,,2101_070u,02-Feb-2021 08:44:38,02-Feb-2021 00:44:38,34.72452,-121.54564,076.7 060.0,076.7,060.0,496.000,500.199,,6.1353,,6.1339,,6.1346,34.2924,,34.2982,34.2910,,34.2930,34.2956,0.3262,,0.3413,0.3527,0.3273,,0.3456,0.3610,0.3569,14.186,15.1101,29.6053,14.232,16.2275,29.7750,29.6902,0.0331,,,, ,, , ,26.9819,,26.9810,,0.7271,83.3782,,,,3.6988E+00,,1.0000E-12,,6.0912,6.0898,0.8445,113.672,4.715,4.730,,,,,,,,,,,,
CalCOFI,2101RL,070,,2101_070u,02-Feb-2021 08:44:39,02-Feb-2021 00:44:39,34.72452,-121.54564,076.7 060.0,076.7,060.0,495.000,499.190,,6.1472,,6.1405,,6.1439,34.2917,,34.2975,34.2906,,34.2926,34.2951,0.3265,,0.3416,0.3531,0.3227,,0.3407,0.3561,0.3546,14.200,15.1248,29.6164,14.035,16.2430,29.6157,29.6161,0.0335,,,, ,, , ,26.9798,,26.9798,,0.7269,83.3833,,,,3.6947E+00,,1.0000E-12,,6.1032,6.0965,0.8445,113.867,4.721,4.665,,,,,,,,,,,,
CalCOFI,2101RL,070,,2101_070u,02-Feb-2021 08:44:40,02-Feb-2021 00:44:40,34.72452,-121.54564,076.7 060.0,076.7,060.0,494.000,498.180,,6.1555,,6.1459,,6.1507,34.2916,,34.2974,34.2903,,34.2923,34.2949,0.3351,,0.3506,0.3621,0.3236,,0.3417,0.3570,0.3596,14.572,15.5142,29.9104,14.072,16.6567,29.6456,29.7780,0.0323,,,, ,, , ,26.9787,,26.9788,,0.7274,83.3732,,,,3.6947E+00,,1.0000E-12,,6.1116,6.1020,0.8445,113.969,4.845,4.678,,,,,,,,,,,,
CalCOFI,2101RL,070,,2101_070u,02-Feb-2021 08:44:41,02-Feb-2021 00:44:41,34.72452,-121.54564,076.7 060.0,076.7,060.0,493.000,497.170,,6.1604,,6.1520,,6.1562,34.2915,,34.2973,34.2899,,34.2919,34.2946,0.3361,,0.3517,0.3631,0.3321,,0.3507,0.3661,0.3646,14.615,15.5592,29.9444,14.444,16.7045,29.9464,29.9454,0.0328,,,, ,, , ,26.9780,,26.9778,,0.7278,83.3651,,,,3.6947E+00,,1.0000E-12,,6.1165,6.1082,0.8445,114.029,4.860,4.802,,,,,,,,,,,,
CalCOFI,2101RL,070,,2101_070u,02-Feb-2021 08:44:42,02-Feb-2021 00:44:42,34.72452,-121.54564,076.7 060.0,076.7,060.0,492.000,496.161,,6.1735,,6.1643,,6.1689,34.2908,,34.2966,34.2897,,34.2917,34.2942,0.3366,,0.3522,0.3637,0.3270,,0.3453,0.3607,0.3622,14.639,15.5843,29.9634,14.221,16.7312,29.7661,29.8648,0.0336,,,, ,, , ,26.9757,,26.9761,,0.7275,83.3701,,,,3.6947E+00,,1.0000E-12,,6.1297,6.1205,0.8445,114.242,4.869,4.729,,,,,,,,,,,,
CalCOFI,2101RL,070,,2101_070u,02-Feb-2021 08:44:43,02-Feb-2021 00:44:43,34.72452,-121.54564,076.7 060.0,076.7,060.0,491.000,495.151,,6.1848,,6.1816,,6.1832,34.2901,,34.2959,34.2887,,34.2907,34.2933,0.3380,,0.3537,0.3651,0.3287,,0.3471,0.3625,0.3638,14.698,15.6461,30.0100,14.293,16.7968,29.8243,29.9172,0.0325,,,, ,, , ,26.9737,,26.9730,,0.7281,83.3584,,,,3.6947E+00,,1.0000E-12,,6.1410,6.1379,0.8445,114.429,4.890,4.755,,,,,,,,,,,,
CalCOFI,2101RL,070,,2101_070u,02-Feb-2021 08:44:44,02-Feb-2021 00:44:44,34.72452,-121.54563,076.7 060.0,076.7,060.0,490.000,494.141,,6.1903,,6.1894,,6.1899,34.2898,,34.2956,34.2882,,34.2902,34.2929,0.3409,,0.3567,0.3682,0.3397,,0.3588,0.3743,0.3713,14.827,15.7811,30.1120,14.774,16.9403,30.2133,30.1627,0.0331,,,, ,, , ,26.9728,,26.9717,,0.7277,83.3662,,,,3.6947E+00,,1.0000E-12,,6.1466,6.1457,0.8445,114.508,4.934,4.916,,,,,,,,,,,,
CalCOFI,2101RL,070,,2101_070u,02-Feb-2021 08:44:44,02-Feb-2021 00:44:44,34.72452,-121.54562,076.7 060.0,076.7,060.0,489.000,493.132,,6.1970,,6.1959,,6.1965,34.2894,,34.2952,34.2880,,34.2900,34.2926,0.3409,,0.3567,0.3682,0.3403,,0.3594,0.3749,0.3716,14.826,15.7801,30.1112,14.800,16.9392,30.2343,30.1728,0.0322,,,, ,, , ,26.9716,,26.9706,,0.7272,83.3770,,,,3.6947E+00,,1.0000E-12,,6.1534,6.1522,0.8445,114.611,4.934,4.925,,,,,,,,,,,,
CalCOFI,2101RL,070,,2101_070u,02-Feb-2021 08:44:45,02-Feb-2021 00:44:45,34.72452,-121.54562,076.7 060.0,076.7,060.0,488.000,492.122,,6.1987,,6.1989,,6.1988,34.2893,,34.2951,34.2878,,34.2898,34.2925,0.3369,,0.3525,0.3640,0.3421,,0.3613,0.3769,0.3705,14.652,15.5979,29.9736,14.876,16.7457,30.2958,30.1347,0.0335,,,, ,, , ,26.9713,,26.9701,,0.7279,83.3631,,,,3.6947E+00,,1.0000E-12,,6.1552,6.1554,0.8445,114.631,4.876,4.951,,,,,,,,,,,,
CalCOFI,2101RL,070,,2101_070u,02-Feb-2021 08:44:46,02-Feb-2021 00:44:46,34.72452,-121.54562,076.7 060.0,076.7,060.0,487.000,491.112,,6.1994,,6.2008,,6.2001,34.2891,,34.2949,34.2876,,34.2896,34.2923,0.3389,,0.3546,0.3661,0.3392,,0.3583,0.3737,0.3699,14.739,15.6890,30.0424,14.750,16.8424,30.1939,30.1182,0.0335,,,, ,, , ,26.9710,,26.9697,,0.7296,83.3280,,,,3.6947E+00,,1.0000E-12,,6.1560,6.1573,0.8445,114.640,4.905,4.909,,,,,,,,,,,,
CalCOFI,2101RL,070,,2101_070u,02-Feb-2021 08:44:47,02-Feb-2021 00:44:47,34.72452,-121.54562,076.7 060.0,076.7,060.0,486.000,490.103,,6.2007,,6.2019,,6.2013,34.2893,,34.2951,34.2876,,34.2896,34.2924,0.3384,,0.3541,0.3655,0.3363,,0.3552,0.3706,0.3681,14.714,15.6628,30.0226,14.623,16.8146,30.0912,30.0569,0.0330,,,, ,, , ,26.9710,,26.9695,,0.7279,83.3633,,,,3.6947E+00,,1.0000E-12,,6.1573,6.1585,0.8445,114.633,4.897,4.867,,,,,,,,,,,,
CalCOFI,2101RL,070,,2101_070u,02-Feb-2021 08:44:48,02-Feb-2021 00:44:48,34.72454,-121.54564,076.7 060.0,076.7,060.0,485.000,489.093,,6.2020,,6.2036,,6.2028,34.2890,,34.2948,34.2874,,34.2894,34.2921,0.3377,,0.3533,0.3648,0.3397,,0.3588,0.3743,0.3696,14.685,15.6325,29.9997,14.773,16.7824,30.2125,30.1061,0.0327,,,, ,, , ,26.9706,,26.9692,,0.7278,83.3642,,,,3.6947E+00,,1.0000E-12,,6.1587,6.1603,0.8445,114.655,4.888,4.917,,,,,,,,,,,,
CalCOFI,2101RL,070,,2101_070u,02-Feb-2021 08:44:49,02-Feb-2021 00:44:49,34.72454,-121.54564,076.7 060.0,076.7,060.0,484.000,488.083,,6.2006,,6.2044,,6.2025,34.2890,,34.2948,34.2873,,34.2893,34.2921,0.3447,,0.3607,0.3722,0.3446,,0.3640,0.3795,0.3759,14.989,15.9507,30.2400,14.987,17.1204,30.3855,30.3128,0.0328,,,, ,, , ,26.9708,,26.9690,,0.7276,83.3686,,,,3.6947E+00,,1.0000E-12,,6.1574,6.1612,0.8445,114.624,4.989,4.988,,,,,,,,,,,,
CalCOFI,2101RL,070,,2101_070u,02-Feb-2021 08:44:50,02-Feb-2021 00:44:50,34.72455,-121.54564,076.7 060.0,076.7,060.0,483.000,487.074,,6.2050,,6.2016,,6.2033,34.2889,,34.2947,34.2885,,34.2905,34.2926,0.3511,,0.3674,0.3789,0.3438,,0.3631,0.3787,0.3788,15.267,16.2417,30.4597,14.950,17.4296,30.3556,30.4077,0.0324,,,, ,, , ,26.9701,,26.9702,,0.7271,83.3788,,,,3.6947E+00,,1.0000E-12,,6.1619,6.1585,0.8445,114.678,5.082,4.976,,,,,,,,,,,,
CalCOFI,2101RL,070,,2101_070u,02-Feb-2021 08:44:52,02-Feb-2021 00:44:52,34.72456,-121.54564,076.7 060.0,076.7,060.0,482.000,486.064,,6.2344,,6.2304,,6.2324,34.2869,,34.2927,34.2857,,34.2877,34.2902,0.3534,,0.3698,0.3813,0.3534,,0.3733,0.3890,0.3852,15.368,16.3474,30.5396,15.370,17.5419,30.6952,30.6174,0.0319,,,, ,, , ,26.9647,,26.9643,,0.7269,83.3814,,,,3.6947E+00,,1.0000E-12,,6.1913,6.1873,0.8445,115.203,5.119,5.119,,,,,,,,,,,,
CalCOFI,2101RL,070,,2101_070u,02-Feb-2021 08:44:52,02-Feb-2021 00:44:52,34.72456,-121.54564,076.7 060.0,076.7,060.0,481.000,485.055,,6.2433,,6.2406,,6.2420,34.2864,,34.2922,34.2853,,34.2873,34.2898,0.3506,,0.3668,0.3783,0.3457,,0.3652,0.3807,0.3795,15.249,16.2229,30.4455,15.033,17.4095,30.4227,30.4341,0.0330,,,, ,, , ,26.9632,,26.9627,,0.7281,83.3585,,,,3.6947E+00,,1.0000E-12,,6.2003,6.1976,0.8445,115.342,5.080,5.008,,,,,,,,,,,,
CalCOFI,2101RL,070,,2101_070u,02-Feb-2021 08:44:53,02-Feb-2021 00:44:53,34.72456,-121.54564,076.7 060.0,076.7,060.0,480.000,484.045,,6.2524,,6.2512,,6.2518,34.2856,,34.2914,34.2842,,34.2862,34.2888,0.3552,,0.3717,0.3832,0.3476,,0.3672,0.3828,0.3830,15.445,16.4280,30.6004,15.116,17.6275,30.4898,30.5451,0.0322,,,, ,, , ,26.9614,,26.9604,,0.7274,83.3724,,,,3.6947E+00,,1.0000E-12,,6.2094,6.2082,0.8445,115.512,5.147,5.037,,,,,,,,,,,,
CalCOFI,2101RL,070,,2101_070u,02-Feb-2021 08:44:54,02-Feb-2021 00:44:54,34.72456,-121.54562,076.7 060.0,076.7,060.0,479.000,483.035,,6.2546,,6.2548,,6.2547,34.2854,,34.2912,34.2840,,34.2860,34.2886,0.3539,,0.3703,0.3818,0.3580,,0.3782,0.3939,0.3879,15.391,16.3715,30.5578,15.570,17.5674,30.8569,30.7074,0.0334,,,, ,, , ,26.9609,,26.9598,,0.7281,83.3590,,,,3.6947E+00,,1.0000E-12,,6.2117,6.2119,0.8445,115.540,5.129,5.189,,,,,,,,,,,,
CalCOFI,2101RL,070,,2101_070u,02-Feb-2021 08:44:55,02-Feb-2021 00:44:55,34.72456,-121.54562,076.7 060.0,076.7,060.0,478.000,482.026,,6.2554,,6.2592,,6.2573,34.2853,,34.2911,34.2834,,34.2854,34.2883,0.3511,,0.3674,0.3789,0.3540,,0.3740,0.3896,0.3843,15.271,16.2459,30.4629,15.396,17.4340,30.7162,30.5896,0.0327,,,, ,, , ,26.9607,,26.9587,,0.7286,83.3482,,,,3.6947E+00,,1.0000E-12,,6.2126,6.2163,0.8445,115.545,5.089,5.131,,,,,,,,,,,,
CalCOFI,2101RL,070,,2101_070u,02-Feb-2021 08:44:56,02-Feb-2021 00:44:56,34.72456,-121.54562,076.7 060.0,076.7,060.0,477.000,481.016,,6.2539,,6.2610,,6.2575,34.2854,,34.2912,34.2834,,34.2854,34.2883,0.3583,,0.3749,0.3864,0.3506,,0.3704,0.3860,0.3862,15.581,16.5704,30.7079,15.248,17.7787,30.5966,30.6523,0.0321,,,, ,, , ,26.9610,,26.9585,,0.7279,83.3635,,,,3.6947E+00,,1.0000E-12,,6.2112,6.2182,0.8445,115.502,5.192,5.082,,,,,,,,,,,,
CalCOFI,2101RL,070,,2101_070u,02-Feb-2021 08:44:57,02-Feb-2021 00:44:57,34.72456,-121.54562,076.7 060.0,076.7,060.0,476.000,480.007,,6.2569,,6.2602,,6.2586,34.2851,,34.2909,34.2833,,34.2853,34.2881,0.3630,,0.3798,0.3913,0.3573,,0.3775,0.3931,0.3922,15.787,16.7860,30.8708,15.537,18.0078,30.8303,30.8506,0.0334,,,, ,, , ,26.9604,,26.9586,,0.7276,83.3689,,,,3.6947E+00,,1.0000E-12,,6.2143,6.2175,0.8445,115.548,5.261,5.178,,,,,,,,,,,,
CalCOFI,2101RL,070,,2101_070u,02-Feb-2021 08:44:58,02-Feb-2021 00:44:58,34.72456,-121.54562,076.7 060.0,076.7,060.0,475.000,478.997,,6.2809,,6.2733,,6.2771,34.2837,,34.2895,34.2824,,34.2844,34.2870,0.3658,,0.3827,0.3943,0.3648,,0.3855,0.4012,0.3978,15.906,16.9106,30.9648,15.863,18.1401,31.0939,31.0294,0.0334,,,, ,, , ,26.9562,,26.9561,,0.7281,83.3585,,,,3.6947E+00,,1.0000E-12,,6.2383,6.2307,0.8445,115.955,5.304,5.288,,,,,,,,,,,,
CalCOFI,2101RL,070,,2101_070u,02-Feb-2021 08:44:59,02-Feb-2021 00:44:59,34.72456,-121.54562,076.7 060.0,076.7,060.0,474.000,477.987,,6.2988,,6.2984,,6.2986,34.2829,,34.2887,34.2810,,34.2830,34.2859,0.3686,,0.3857,0.3972,0.3677,,0.3885,0.4043,0.4008,16.029,17.0394,31.0620,15.992,18.2769,31.1982,31.1301,0.0334,,,, ,, , ,26.9532,,26.9518,,0.7281,83.3587,,,,3.6947E+00,,1.0000E-12,,6.2562,6.2558,0.8445,116.244,5.347,5.334,,,,,,,,,,,,
CalCOFI,2101RL,070,,2101_070u,02-Feb-2021 08:45:00,02-Feb-2021 00:45:00,34.72456,-121.54562,076.7 060.0,076.7,060.0,473.000,476.978,,6.3082,,6.3076,,6.3079,34.2815,,34.2873,34.2800,,34.2820,34.2847,0.3697,,0.3868,0.3984,0.3620,,0.3825,0.3982,0.3983,16.076,17.0886,31.0992,15.744,18.3292,30.9976,31.0484,0.0318,,,, ,, , ,26.9509,,26.9498,,0.7281,83.3587,,,,3.6947E+00,,1.0000E-12,,6.2657,6.2651,0.8445,116.459,5.364,5.253,,,,,,,,,,,,
CalCOFI,2101RL,070,,2101_070u,02-Feb-2021 08:45:01,02-Feb-2021 00:45:01,34.72458,-121.54564,076.7 060.0,076.7,060.0,472.000,475.968,,6.3123,,6.3112,,6.3118,34.2810,,34.2868,34.2795,,34.2815,34.2842,0.3683,,0.3854,0.3969,0.3594,,0.3797,0.3954,0.3962,16.016,17.0257,31.0518,15.630,18.2625,30.9055,30.9787,0.0323,,,, ,, , ,26.9499,,26.9489,,0.7281,83.3587,,,,3.6947E+00,,1.0000E-12,,6.2699,6.2687,0.8445,116.538,5.344,5.215,,,,,,,,,,,,
CalCOFI,2101RL,070,,2101_070u,02-Feb-2021 08:45:02,02-Feb-2021 00:45:02,34.72458,-121.54564,076.7 060.0,076.7,060.0,471.000,474.959,,6.3135,,6.3125,,6.3130,34.2808,,34.2866,34.2791,,34.2811,34.2839,0.3729,,0.3902,0.4017,0.3699,,0.3909,0.4066,0.4042,16.218,17.2372,31.2114,16.087,18.4871,31.2750,31.2432,0.0323,,,, ,, , ,26.9496,,26.9484,,0.7281,83.3587,,,,3.6947E+00,,1.0000E-12,,6.2711,6.2701,0.8445,116.553,5.412,5.368,,,,,,,,,,,,
CalCOFI,2101RL,070,,2101_070u,02-Feb-2021 08:45:03,02-Feb-2021 00:45:03,34.72458,-121.54564,076.7 060.0,076.7,060.0,470.000,473.949,,6.3156,,6.3161,,6.3159,34.2804,,34.2862,34.2787,,34.2807,34.2835,0.3721,,0.3893,0.4009,0.3698,,0.3908,0.4065,0.4037,16.182,17.1995,31.1830,16.084,18.4470,31.2726,31.2278,0.0334,,,, ,, , ,26.9490,,26.9476,,0.7278,83.3653,,,,3.6947E+00,,1.0000E-12,,6.2733,6.2738,0.8445,116.597,5.400,5.367,,,,,,,,,,,,
CalCOFI,2101RL,070,,2101_070u,02-Feb-2021 08:45:04,02-Feb-2021 00:45:04,34.72458,-121.54563,076.7 060.0,076.7,060.0,469.000,472.940,,6.3155,,6.3184,,6.3170,34.2802,,34.2860,34.2781,,34.2801,34.2831,0.3692,,0.3863,0.3978,0.3701,,0.3911,0.4069,0.4024,16.053,17.0645,31.0810,16.096,18.3036,31.2823,31.1817,0.0327,,,, ,, , ,26.9488,,26.9468,,0.7281,83.3587,,,,3.6947E+00,,1.0000E-12,,6.2733,6.2762,0.8445,116.599,5.357,5.372,,,,,,,,,,,,
CalCOFI,2101RL,070,,2101_070u,02-Feb-2021 08:45:04,02-Feb-2021 00:45:04,34.72458,-121.54562,076.7 060.0,076.7,060.0,468.000,471.930,,6.3176,,6.3194,,6.3185,34.2797,,34.2855,34.2779,,34.2799,34.2827,0.3740,,0.3913,0.4029,0.3721,,0.3932,0.4090,0.4060,16.266,17.2874,31.2494,16.180,18.5405,31.3502,31.2998,0.0330,,,, ,, , ,26.9482,,26.9465,,0.7281,83.3587,,,,3.6947E+00,,1.0000E-12,,6.2754,6.2773,0.8445,116.648,5.428,5.400,,,,,,,,,,,,
CalCOFI,2101RL,070,,2101_070u,02-Feb-2021 08:45:05,02-Feb-2021 00:45:05,34.72458,-121.54562,076.7 060.0,076.7,060.0,467.000,470.921,,6.3209,,6.3218,,6.3214,34.2793,,34.2851,34.2775,,34.2795,34.2823,0.3780,,0.3955,0.4071,0.3695,,0.3904,0.4062,0.4067,16.438,17.4675,31.3853,16.070,18.7317,31.2612,31.3233,0.0328,,,, ,, , ,26.9474,,26.9459,,0.7281,83.3587,,,,2.9448E+00,,1.0000E-12,,6.2788,6.2798,0.8445,116.706,5.486,5.363,,,,,,,,,,,,
CalCOFI,2101RL,070,,2101_070u,02-Feb-2021 08:45:06,02-Feb-2021 00:45:06,34.72458,-121.54562,076.7 060.0,076.7,060.0,466.000,469.911,,6.3218,,6.3227,,6.3223,34.2790,,34.2848,34.2773,,34.2793,34.2821,0.3737,,0.3910,0.4026,0.3712,,0.3923,0.4080,0.4053,16.251,17.2717,31.2375,16.143,18.5238,31.3203,31.2789,0.0331,,,, ,, , ,26.9471,,26.9456,,0.7275,83.3710,,,,3.5784E+00,,1.0000E-12,,6.2799,6.2808,0.8445,116.730,5.423,5.388,,,,,,,,,,,,
CalCOFI,2101RL,070,,2101_070u,02-Feb-2021 08:45:07,02-Feb-2021 00:45:07,34.72459,-121.54563,076.7 060.0,076.7,060.0,465.000,468.902,,6.3230,,6.3233,,6.3232,34.2789,,34.2847,34.2772,,34.2792,34.2820,0.3723,,0.3895,0.4011,0.3689,,0.3898,0.4056,0.4034,16.191,17.2089,31.1901,16.042,18.4571,31.2386,31.2144,0.0317,,,, ,, , ,26.9469,,26.9455,,0.7281,83.3589,,,,3.6926E+00,,1.0000E-12,,6.2811,6.2814,0.8445,116.734,5.403,5.354,,,,,,,,,,,,